QZS-2 (MICHIBIKI-2) (42738 NORAD) Tracking and Keplerian Element Data

This shows tracking and keplerian element data for the satellite.

Feedback or suggestion? Click here.




ElementValue
Catalog42738
NameQZS-2 (MICHIBIKI-2)
Epoch Orbit1577
Epoch Day261.34553672
Epoch Year2021
RAAN268.0076
Inclination42.2308
Eccentricity0.0750926
Argument of Perigee270.1955
Mean Anonmoly83.7788
Mean Motion1.00262624
Decay Rate-1.84E-06
L11 42738U 17028A 21261.34553672 -.00000184 00000-0 00000-0 0 9993
L22 42738 42.2308 268.0076 0750926 270.1955 83.7788 1.00262624 15776

Live tracking and technical data element details for QZS-2 (MICHIBIKI-2) (NORAD 42738). QZS-2 (MICHIBIKI-2) can be tracked NOW for your location showing map with azimuth and elevation plus other details from your city location.

Track the satellite on the map from your city or location and see movement details for azimuth, elevation, latitude, longitude, range, height, and movement on the map or in text.







IsCatalogInMostPopularTable: catalog: 42738, numindb: 623
Update: records affected: 1



GetName: 42738 QZS-2 (MICHIBIKI-2)

Hit Count: updated at: Sun, 26 Sep 2021 01:15:19 GMT